• In Latvia
  • List of Countries
  • For 7 days
  • Water Temperature
  • Satellite Maps
  • Weather Map
  • Weather Widgets
  • user-avatar
    Login

    Hourly Weather Ilukste

    Today, 14 November, Wednesday

    Time Temperature Precipitation Wind Pressure Humidity
    00:00 +4°C° 1.2 mm 4 mps 754 mmHg 92%
    01:00 +4°C° 1.2 mm 3 mps 754 mmHg 93%
    02:00 +4°C° 0 mm 3 mps 754 mmHg 92%
    03:00 +5°C° 0.7 mm 2 mps 753 mmHg 93%
    04:00 +5°C° 0.7 mm 2 mps 753 mmHg 94%
    05:00 +5°C° 0.7 mm 2 mps 753 mmHg 95%
    06:00 +5°C° 0.3 mm 2 mps 753 mmHg 95%
    07:00 +5°C° 0.3 mm 2 mps 753 mmHg 95%
    08:00 +5°C° 0.3 mm 2 mps 754 mmHg 96%
    09:00 +5°C° 0.1 mm 2 mps 754 mmHg 94%
    10:00 +5°C° 0.1 mm 3 mps 754 mmHg 92%
    11:00 +5°C° 0.1 mm 3 mps 755 mmHg 90%
    12:00 +5°C° 0 mm 3 mps 755 mmHg 89%
    13:00 +5°C° 0 mm 3 mps 756 mmHg 88%
    14:00 +7°C° 0 mm 3 mps 756 mmHg 87%
    15:00 +5°C° 0 mm 3 mps 757 mmHg 89%
    16:00 +6°C° 0 mm 2 mps 757 mmHg 91%
    17:00 +6°C° 0 mm 2 mps 758 mmHg 93%
    18:00 +6°C° 0 mm 2 mps 758 mmHg 94%
    19:00 +6°C° 0 mm 2 mps 758 mmHg 94%
    20:00 +6°C° 0 mm 2 mps 759 mmHg 95%
    21:00 +6°C° 0 mm 2 mps 759 mmHg 96%
    22:00 +6°C° 0 mm 2 mps 759 mmHg 96%
    23:00 +6°C° 0 mm 2 mps 760 mmHg 96%

    Tomorrow, 15 November, Thursday

    Time Temperature Precipitation Wind Pressure Humidity
    00:00 +6°C° 0 mm 2 mps 760 mmHg 96%
    01:00 +5°C° 0 mm 2 mps 761 mmHg 96%
    02:00 +5°C° 0 mm 2 mps 761 mmHg 96%
    03:00 +6°C° 0 mm 1 mps 761 mmHg 96%
    04:00 +6°C° 0 mm 1 mps 762 mmHg 96%
    05:00 +5°C° 0 mm 1 mps 762 mmHg 96%
    06:00 +5°C° 0 mm 1 mps 762 mmHg 96%
    07:00 +5°C° 0 mm 1 mps 763 mmHg 95%
    08:00 +4°C° 0 mm 0 mps 763 mmHg 95%
    09:00 +5°C° 0 mm 0 mps 764 mmHg 93%
    10:00 +5°C° 0 mm 0 mps 764 mmHg 91%
    11:00 +5°C° 0 mm 0 mps 764 mmHg 89%
    12:00 +6°C° 0 mm 0 mps 765 mmHg 87%
    13:00 +6°C° 0 mm 0 mps 765 mmHg 86%
    14:00 +7°C° 0 mm 1 mps 765 mmHg 85%
    15:00 +7°C° 0 mm 1 mps 766 mmHg 86%
    16:00 +6°C° 0 mm 1 mps 766 mmHg 88%
    17:00 +6°C° 0 mm 1 mps 766 mmHg 90%
    18:00 +5°C° 0 mm 1 mps 767 mmHg 90%
    19:00 +5°C° 0 mm 1 mps 767 mmHg 90%
    20:00 +5°C° 0 mm 1 mps 767 mmHg 91%
    21:00 +5°C° 0 mm 1 mps 768 mmHg 91%
    22:00 +4°C° 0 mm 1 mps 768 mmHg 91%
    23:00 +4°C° 0 mm 1 mps 768 mmHg 92%

    Day after tomorrow, 16 November, Friday

    Time Temperature Precipitation Wind Pressure Humidity
    00:00 +4°C° 0 mm 1 mps 768 mmHg 93%
    01:00 +4°C° 0 mm 1 mps 769 mmHg 93%
    02:00 +3°C° 0 mm 1 mps 769 mmHg 94%
    03:00 +3°C° 0 mm 1 mps 769 mmHg 95%
    04:00 +3°C° 0 mm 1 mps 769 mmHg 95%
    05:00 +2°C° 0 mm 1 mps 770 mmHg 95%
    06:00 +2°C° 0 mm 1 mps 770 mmHg 95%
    07:00 +2°C° 0 mm 1 mps 770 mmHg 95%
    08:00 +2°C° 0 mm 1 mps 770 mmHg 95%
    09:00 +2°C° 0 mm 2 mps 771 mmHg 92%
    10:00 +2°C° 0 mm 2 mps 771 mmHg 89%
    11:00 +3°C° 0 mm 2 mps 771 mmHg 86%
    12:00 +3°C° 0 mm 2 mps 771 mmHg 84%
    13:00 +4°C° 0 mm 2 mps 771 mmHg 83%
    14:00 +5°C° 0 mm 1 mps 771 mmHg 81%
    15:00 +4°C° 0 mm 1 mps 771 mmHg 85%
    16:00 +4°C° 0 mm 1 mps 771 mmHg 88%
    17:00 +3°C° 0 mm 1 mps 771 mmHg 91%
    18:00 +3°C° 0 mm 1 mps 771 mmHg 92%
    19:00 +3°C° 0 mm 1 mps 771 mmHg 92%
    20:00 +2°C° 0 mm 1 mps 771 mmHg 93%
    21:00 +1°C° 0 mm 2 mps 771 mmHg 92%
    22:00 +1°C° 0 mm 2 mps 771 mmHg 92%
    23:00 +1°C° 0 mm 2 mps 771 mmHg 91%

    17 November, Saturday

    Time Temperature Precipitation Wind Pressure Humidity
    00:00 +1°C° 0 mm 2 mps 771 mmHg 91%
    01:00 +2°C° 0 mm 2 mps 771 mmHg 91%
    02:00 +2°C° 0 mm 2 mps 771 mmHg 90%
    03:00 +2°C° 0 mm 2 mps 771 mmHg 90%
    04:00 +2°C° 0 mm 2 mps 771 mmHg 90%
    05:00 +2°C° 0 mm 2 mps 771 mmHg 89%
    06:00 +2°C° 0 mm 2 mps 770 mmHg 90%
    07:00 +2°C° 0 mm 2 mps 770 mmHg 91%
    08:00 +2°C° 0 mm 2 mps 770 mmHg 91%
    09:00 +3°C° 0 mm 2 mps 770 mmHg 90%
    10:00 +2°C° 0 mm 3 mps 770 mmHg 88%
    11:00 +3°C° 0 mm 3 mps 769 mmHg 87%
    12:00 +3°C° 0 mm 3 mps 769 mmHg 87%
    13:00 +4°C° 0 mm 3 mps 768 mmHg 86%
    14:00 +4°C° 0 mm 3 mps 768 mmHg 86%
    15:00 +4°C° 0 mm 4 mps 767 mmHg 88%
    16:00 +4°C° 0 mm 4 mps 767 mmHg 90%
    17:00 +4°C° 0 mm 4 mps 766 mmHg 92%
    18:00 +4°C° 0 mm 4 mps 766 mmHg 92%
    19:00 +4°C° 0 mm 4 mps 765 mmHg 92%
    20:00 +5°C° 0 mm 4 mps 765 mmHg 93%
    21:00 +4°C° 0 mm 4 mps 764 mmHg 93%
    22:00 +4°C° 0 mm 4 mps 763 mmHg 93%
    23:00 +4°C° 0 mm 4 mps 763 mmHg 93%

    18 November, Sunday

    Time Temperature Precipitation Wind Pressure Humidity
    00:00 +4°C° 0 mm 4 mps 762 mmHg 92%
    01:00 +5°C° 0 mm 4 mps 762 mmHg 90%
    02:00 +5°C° 0 mm 4 mps 761 mmHg 88%
    03:00 +4°C° 0 mm 4 mps 761 mmHg 87%
    04:00 +4°C° 0 mm 4 mps 760 mmHg 85%
    05:00 +4°C° 0 mm 4 mps 760 mmHg 84%
    06:00 +4°C° 0 mm 4 mps 759 mmHg 84%
    07:00 +4°C° 0 mm 4 mps 759 mmHg 83%
    08:00 +3°C° 0 mm 4 mps 759 mmHg 83%
    09:00 +4°C° 0.1 mm 4 mps 759 mmHg 82%
    10:00 +4°C° 0.1 mm 4 mps 759 mmHg 80%
    11:00 +3°C° 0.1 mm 5 mps 759 mmHg 79%
    12:00 +5°C° 0.1 mm 5 mps 759 mmHg 78%
    13:00 +5°C° 0.1 mm 5 mps 759 mmHg 77%
    14:00 +5°C° 0.1 mm 5 mps 759 mmHg 76%
    15:00 +5°C° 0.1 mm 4 mps 759 mmHg 78%
    16:00 +4°C° 0.1 mm 4 mps 759 mmHg 79%
    17:00 +4°C° 0.1 mm 4 mps 758 mmHg 81%
    18:00 +4°C° 0.1 mm 4 mps 758 mmHg 80%
    19:00 +3°C° 0.1 mm 5 mps 758 mmHg 79%
    20:00 +3°C° 0.1 mm 5 mps 758 mmHg 79%
    21:00 +3°C° 0.1 mm 5 mps 758 mmHg 79%
    22:00 +3°C° 0.1 mm 5 mps 758 mmHg 80%
    23:00 +3°C° 0.1 mm 4 mps 758 mmHg 80%

    19 November, Monday

    Time Temperature Precipitation Wind Pressure Humidity
    00:00 +3°C° 0.2 mm 4 mps 758 mmHg 81%
    01:00 +3°C° 0.2 mm 4 mps 758 mmHg 81%
    02:00 +3°C° 0.2 mm 4 mps 758 mmHg 82%
    03:00 +3°C° 0.1 mm 4 mps 758 mmHg 82%
    04:00 +2°C° 0.1 mm 5 mps 758 mmHg 81%
    05:00 +2°C° 0.1 mm 5 mps 758 mmHg 80%
    06:00 +2°C° 0.2 mm 5 mps 758 mmHg 81%
    07:00 +1°C° 0.2 mm 5 mps 758 mmHg 81%
    08:00 +1°C° 0.2 mm 5 mps 758 mmHg 81%
    09:00 +1°C° 0.1 mm 5 mps 759 mmHg 80%
    10:00 +1°C° 0.1 mm 5 mps 760 mmHg 79%
    11:00 +1°C° 0.1 mm 5 mps 760 mmHg 78%
    12:00 +1°C° 0.1 mm 5 mps 761 mmHg 78%
    13:00 +2°C° 0.1 mm 5 mps 761 mmHg 77%
    14:00 +2°C° 0.1 mm 5 mps 761 mmHg 76%
    15:00 +1°C° 0.1 mm 5 mps 761 mmHg 77%
    16:00 +1°C° 0.1 mm 5 mps 762 mmHg 78%
    17:00 +1°C° 0.1 mm 5 mps 762 mmHg 80%
    18:00 +1°C° 0.1 mm 5 mps 762 mmHg 80%
    19:00 +1°C° 0.1 mm 4 mps 762 mmHg 81%
    20:00 0°C° 0.1 mm 4 mps 762 mmHg 82%
    21:00 0°C° 0 mm 4 mps 763 mmHg 82%
    22:00 0°C° 0 mm 4 mps 763 mmHg 82%
    23:00 0°C° 0 mm 4 mps 764 mmHg 82%
    Show more